Find Flock 4be-24

NORAD ID: 60505 Int'l Des: 2024-149 Owner: PLAN Country: US Constellation: planet operational
LEOCIRCULARRETROGRADESSO

当前视图

正在加载3D地球...

About Flock 4be-24

Flock 4be-24 (NORAD 60505) is a planet constellation satellite launched Aug 16, 2024 by PLAN of US. It operates in LEO, CIRCULAR, RETROGRADE, SSO orbit with a mass of 5.70 kg.

关于 Flock 4be-24

正在加载描述...

即将过境

Passes for default location (London). Set your location on the main map for personalized predictions.

高度历史

Loading altitude history...

两行轨道根数

1 60505U 24149AP 26194.74829825 .00012466 00000-0 27469-3 0 9993
2 60505 97.3717 279.5006 0004941 174.4420 185.6884 15.44062505106460
Epoch: Jul 13, 2026 • Age: 12 hours

当前状态

高度 435.4 km
远地点 / 近地点 N/A
速度 7.66 km/s
星下点 32.67°N, 90.39°E
发射日期 Aug 16, 2024
运行时间 1.9 years
类型 earth observation

技术详情

分类 Payload
质量 5.70 kg
干质量 5.70 kg
总质量 5.70 kg
长度 0.30 m
直径 0.10 m
跨度 0.30 m
形状 Box+2 pan
制造商 PLAN
平台类型 Cubesat 3U
阶段状态 In Orbit
所有者/国家 PLAN/US

Most Searched